Year,Month,Day,Hour,Minute,Value (Times are PST for temperature in C)
2020,05,24,00,00,13.10
2020,05,24,00,01,13.10
2020,05,24,00,02,13.10
2020,05,24,00,03,13.10
2020,05,24,00,04,13.10
2020,05,24,00,05,13.10
2020,05,24,00,06,13.10
2020,05,24,00,07,13.10
2020,05,24,00,08,13.10
2020,05,24,00,09,13.10
2020,05,24,00,10,13.10
2020,05,24,00,11,13.10
2020,05,24,00,12,13.10
2020,05,24,00,13,13.10
2020,05,24,00,14,13.10
2020,05,24,00,15,13.10
2020,05,24,00,16,13.00
2020,05,24,00,17,13.00
2020,05,24,00,18,13.00
2020,05,24,00,19,12.90
2020,05,24,00,20,12.90
2020,05,24,00,21,12.90
2020,05,24,00,22,12.80
2020,05,24,00,23,12.80
2020,05,24,00,24,12.80
2020,05,24,00,25,12.80
2020,05,24,00,26,12.80
2020,05,24,00,27,12.80
2020,05,24,00,28,12.70
2020,05,24,00,29,12.70
2020,05,24,00,30,12.70
2020,05,24,00,31,12.70
2020,05,24,00,32,12.70
2020,05,24,00,33,12.80
2020,05,24,00,34,12.70
2020,05,24,00,35,12.70
2020,05,24,00,36,12.80
2020,05,24,00,37,12.80
2020,05,24,00,38,12.80
2020,05,24,00,39,12.80
2020,05,24,00,40,12.80
2020,05,24,00,41,12.90
2020,05,24,00,42,12.90
2020,05,24,00,43,12.90
2020,05,24,00,44,12.90
2020,05,24,00,45,12.80
2020,05,24,00,46,12.80
2020,05,24,00,47,12.80
2020,05,24,00,48,12.80
2020,05,24,00,49,12.80
2020,05,24,00,50,12.80
2020,05,24,00,51,12.80
2020,05,24,00,52,12.70
2020,05,24,00,53,12.70
2020,05,24,00,54,12.70
2020,05,24,00,55,12.70
2020,05,24,00,56,12.70
2020,05,24,00,57,12.70
2020,05,24,00,58,12.60
2020,05,24,00,59,12.60
2020,05,24,01,00,12.60
2020,05,24,01,01,12.60
2020,05,24,01,02,12.60
2020,05,24,01,03,12.60
2020,05,24,01,04,12.60
2020,05,24,01,05,12.60
2020,05,24,01,06,12.60
2020,05,24,01,07,12.60
2020,05,24,01,08,12.60
2020,05,24,01,09,12.60
2020,05,24,01,10,12.60
2020,05,24,01,11,12.60
2020,05,24,01,12,12.60
2020,05,24,01,13,12.60
2020,05,24,01,14,12.60
2020,05,24,01,15,12.60
2020,05,24,01,16,12.60
2020,05,24,01,17,12.60
2020,05,24,01,18,12.60
2020,05,24,01,19,12.60
2020,05,24,01,20,12.60
2020,05,24,01,21,12.60
2020,05,24,01,22,12.60
2020,05,24,01,23,12.60
2020,05,24,01,24,12.50
2020,05,24,01,25,12.50
2020,05,24,01,26,12.50
2020,05,24,01,27,12.50
2020,05,24,01,28,12.50
2020,05,24,01,29,12.40
2020,05,24,01,30,12.40
2020,05,24,01,31,12.40
2020,05,24,01,32,12.40
2020,05,24,01,33,12.40
2020,05,24,01,34,12.40
2020,05,24,01,35,12.40
2020,05,24,01,36,12.40
2020,05,24,01,37,12.40
2020,05,24,01,38,12.40
2020,05,24,01,39,12.40
2020,05,24,01,40,12.40
2020,05,24,01,41,12.40
2020,05,24,01,42,12.40
2020,05,24,01,43,12.40
2020,05,24,01,44,12.40
2020,05,24,01,45,12.30
2020,05,24,01,46,12.30
2020,05,24,01,47,12.30
2020,05,24,01,48,12.30
2020,05,24,01,49,12.30
2020,05,24,01,50,12.30
2020,05,24,01,51,12.20
2020,05,24,01,52,12.20
2020,05,24,01,53,12.20
2020,05,24,01,54,12.20
2020,05,24,01,55,12.20
2020,05,24,01,56,12.20
2020,05,24,01,57,12.20
2020,05,24,01,58,12.20
2020,05,24,01,59,12.20
2020,05,24,02,00,12.20
2020,05,24,02,01,12.20
2020,05,24,02,02,12.20
2020,05,24,02,03,12.20
2020,05,24,02,04,12.20
2020,05,24,02,05,12.10
2020,05,24,02,06,12.10
2020,05,24,02,07,12.10
2020,05,24,02,08,12.10
2020,05,24,02,09,12.10
2020,05,24,02,10,12.10
2020,05,24,02,11,12.10
2020,05,24,02,12,12.10
2020,05,24,02,13,12.10
2020,05,24,02,14,12.10
2020,05,24,02,15,12.10
2020,05,24,02,16,12.10
2020,05,24,02,17,12.10
2020,05,24,02,18,12.10
2020,05,24,02,19,12.00
2020,05,24,02,20,12.00
2020,05,24,02,21,12.00
2020,05,24,02,22,12.00
2020,05,24,02,23,12.00
2020,05,24,02,24,11.90
2020,05,24,02,25,11.90
2020,05,24,02,26,11.90
2020,05,24,02,27,11.90
2020,05,24,02,28,11.90
2020,05,24,02,29,11.90
2020,05,24,02,30,11.90
2020,05,24,02,31,11.90
2020,05,24,02,32,11.90
2020,05,24,02,33,11.90
2020,05,24,02,34,11.90
2020,05,24,02,35,11.90
2020,05,24,02,36,11.90
2020,05,24,02,37,11.90
2020,05,24,02,38,11.90
2020,05,24,02,39,11.90
2020,05,24,02,40,11.90
2020,05,24,02,41,11.90
2020,05,24,02,42,11.90
2020,05,24,02,43,11.90
2020,05,24,02,44,11.90
2020,05,24,02,45,11.90
2020,05,24,02,46,11.90
2020,05,24,02,47,11.90
2020,05,24,02,48,11.90
2020,05,24,02,49,11.80
2020,05,24,02,50,11.80
2020,05,24,02,51,11.80
2020,05,24,02,52,11.80
2020,05,24,02,53,11.80
2020,05,24,02,54,11.80
2020,05,24,02,55,11.70
2020,05,24,02,56,11.70
2020,05,24,02,57,11.70
2020,05,24,02,58,11.70
2020,05,24,02,59,11.70
2020,05,24,03,00,11.70
2020,05,24,03,01,11.70
2020,05,24,03,02,11.70
2020,05,24,03,03,11.70
2020,05,24,03,04,11.70
2020,05,24,03,05,11.70
2020,05,24,03,06,11.70
2020,05,24,03,07,11.70
2020,05,24,03,08,11.70
2020,05,24,03,09,11.70
2020,05,24,03,10,11.70
2020,05,24,03,11,11.70
2020,05,24,03,12,11.70
2020,05,24,03,13,11.60
2020,05,24,03,14,11.60
2020,05,24,03,15,11.60
2020,05,24,03,16,11.60
2020,05,24,03,17,11.50
2020,05,24,03,18,11.50
2020,05,24,03,19,11.50
2020,05,24,03,20,11.50
2020,05,24,03,21,11.50
2020,05,24,03,22,11.40
2020,05,24,03,23,11.40
2020,05,24,03,24,11.40
2020,05,24,03,25,11.30
2020,05,24,03,26,11.30
2020,05,24,03,27,11.30
2020,05,24,03,28,11.30
2020,05,24,03,29,11.20
2020,05,24,03,30,11.20
2020,05,24,03,31,11.20
2020,05,24,03,32,11.20
2020,05,24,03,33,11.20
2020,05,24,03,34,11.10
2020,05,24,03,35,11.10
2020,05,24,03,36,11.10
2020,05,24,03,37,11.10
2020,05,24,03,38,11.10
2020,05,24,03,39,11.10
2020,05,24,03,40,11.10
2020,05,24,03,41,11.10
2020,05,24,03,42,11.10
2020,05,24,03,43,11.10
2020,05,24,03,44,11.10
2020,05,24,03,45,11.10
2020,05,24,03,46,11.10
2020,05,24,03,47,11.10
2020,05,24,03,48,11.10
2020,05,24,03,49,11.00
2020,05,24,03,50,11.00
2020,05,24,03,51,11.00
2020,05,24,03,52,10.90
2020,05,24,03,53,10.90
2020,05,24,03,54,10.90
2020,05,24,03,55,10.90
2020,05,24,03,56,10.80
2020,05,24,03,57,10.80
2020,05,24,03,58,10.80
2020,05,24,03,59,10.80
2020,05,24,04,00,10.70
2020,05,24,04,01,10.70
2020,05,24,04,02,10.70
2020,05,24,04,03,10.70
2020,05,24,04,04,10.70
2020,05,24,04,05,10.70
2020,05,24,04,06,10.70
2020,05,24,04,07,10.70
2020,05,24,04,08,10.70
2020,05,24,04,09,10.70
2020,05,24,04,10,10.70
2020,05,24,04,11,10.70
2020,05,24,04,12,10.70
2020,05,24,04,13,10.70
2020,05,24,04,14,10.70
2020,05,24,04,15,10.70
2020,05,24,04,16,10.70
2020,05,24,04,17,10.70
2020,05,24,04,18,10.70
2020,05,24,04,19,10.70
2020,05,24,04,20,10.70
2020,05,24,04,21,10.70
2020,05,24,04,22,10.70
2020,05,24,04,23,10.60
2020,05,24,04,24,10.70
2020,05,24,04,25,10.60
2020,05,24,04,26,10.60
2020,05,24,04,27,10.60
2020,05,24,04,28,10.60
2020,05,24,04,29,10.60
2020,05,24,04,30,10.60
2020,05,24,04,31,10.60
2020,05,24,04,32,10.60
2020,05,24,04,33,10.60
2020,05,24,04,34,10.50
2020,05,24,04,35,10.50
2020,05,24,04,36,10.50
2020,05,24,04,37,10.50
2020,05,24,04,38,10.50
2020,05,24,04,39,10.50
2020,05,24,04,40,10.40
2020,05,24,04,41,10.40
2020,05,24,04,42,10.50
2020,05,24,04,43,10.50
2020,05,24,04,44,10.50
2020,05,24,04,45,10.50
2020,05,24,04,46,10.50
2020,05,24,04,47,10.50
2020,05,24,04,48,10.50
2020,05,24,04,49,10.60
2020,05,24,04,50,10.60
2020,05,24,04,51,10.60
2020,05,24,04,52,10.60
2020,05,24,04,53,10.60
2020,05,24,04,54,10.60
2020,05,24,04,55,10.60
2020,05,24,04,56,10.50
2020,05,24,04,57,10.50
2020,05,24,04,58,10.50
2020,05,24,04,59,10.50
2020,05,24,05,00,10.50
2020,05,24,05,01,10.50
2020,05,24,05,02,10.50
2020,05,24,05,03,10.40
2020,05,24,05,04,10.40
2020,05,24,05,05,10.40
2020,05,24,05,06,10.40
2020,05,24,05,07,10.40
2020,05,24,05,08,10.40
2020,05,24,05,09,10.40
2020,05,24,05,10,10.40
2020,05,24,05,11,10.40
2020,05,24,05,12,10.40
2020,05,24,05,13,10.40
2020,05,24,05,14,10.40
2020,05,24,05,15,10.40
2020,05,24,05,16,10.40
2020,05,24,05,17,10.40
2020,05,24,05,18,10.40
2020,05,24,05,19,10.40
2020,05,24,05,20,10.40
2020,05,24,05,21,10.40
2020,05,24,05,22,10.40
2020,05,24,05,23,10.40
2020,05,24,05,24,10.40
2020,05,24,05,25,10.40
2020,05,24,05,26,10.30
2020,05,24,05,27,10.30
2020,05,24,05,28,10.30
2020,05,24,05,29,10.30
2020,05,24,05,30,10.30
2020,05,24,05,31,10.30
2020,05,24,05,32,10.30
2020,05,24,05,33,10.30
2020,05,24,05,34,10.30
2020,05,24,05,35,10.30
2020,05,24,05,36,10.30
2020,05,24,05,37,10.30
2020,05,24,05,38,10.30
2020,05,24,05,39,10.30
2020,05,24,05,40,10.30
2020,05,24,05,41,10.30
2020,05,24,05,42,10.30
2020,05,24,05,43,10.30
2020,05,24,05,44,10.30
2020,05,24,05,45,10.30
2020,05,24,05,46,10.30
2020,05,24,05,47,10.30
2020,05,24,05,48,10.30
2020,05,24,05,49,10.30
2020,05,24,05,50,10.30
2020,05,24,05,51,10.30
2020,05,24,05,52,10.30
2020,05,24,05,53,10.30
2020,05,24,05,54,10.30
2020,05,24,05,55,10.30
2020,05,24,05,56,10.30
2020,05,24,05,57,10.30
2020,05,24,05,58,10.30
2020,05,24,05,59,10.40
2020,05,24,06,00,10.40
2020,05,24,06,01,10.40
2020,05,24,06,02,10.40
2020,05,24,06,03,10.40
2020,05,24,06,04,10.30
2020,05,24,06,05,10.30
2020,05,24,06,06,10.30
2020,05,24,06,07,10.30
2020,05,24,06,08,10.30
2020,05,24,06,09,10.30
2020,05,24,06,10,10.30
2020,05,24,06,11,10.30
2020,05,24,06,12,10.30
2020,05,24,06,13,10.30
2020,05,24,06,14,10.30
2020,05,24,06,15,10.30
2020,05,24,06,16,10.30
2020,05,24,06,17,10.30
2020,05,24,06,18,10.30
2020,05,24,06,19,10.30
2020,05,24,06,20,10.40
2020,05,24,06,21,10.40
2020,05,24,06,22,10.40
2020,05,24,06,23,10.40
2020,05,24,06,24,10.40
2020,05,24,06,25,10.40
2020,05,24,06,26,10.50
2020,05,24,06,27,10.40
2020,05,24,06,28,10.50
2020,05,24,06,29,10.50
2020,05,24,06,30,10.50
2020,05,24,06,31,10.50
2020,05,24,06,32,10.50
2020,05,24,06,33,10.50
2020,05,24,06,34,10.50
2020,05,24,06,35,10.50
2020,05,24,06,36,10.50
2020,05,24,06,37,10.50
2020,05,24,06,38,10.60
2020,05,24,06,39,10.60
2020,05,24,06,40,10.60
2020,05,24,06,41,10.60
2020,05,24,06,42,10.60
2020,05,24,06,43,10.60
2020,05,24,06,44,10.70
2020,05,24,06,45,10.70
2020,05,24,06,46,10.70
2020,05,24,06,47,10.70
2020,05,24,06,48,10.70
2020,05,24,06,49,10.70
2020,05,24,06,50,10.70
2020,05,24,06,51,10.70
2020,05,24,06,52,10.70
2020,05,24,06,53,10.70
2020,05,24,06,54,10.70
2020,05,24,06,55,10.70
2020,05,24,06,56,10.70
2020,05,24,06,57,10.70
2020,05,24,06,58,10.70
2020,05,24,06,59,10.70
2020,05,24,07,00,10.70
2020,05,24,07,01,10.80
2020,05,24,07,02,10.80
2020,05,24,07,03,10.80
2020,05,24,07,04,10.90
2020,05,24,07,05,10.90
2020,05,24,07,06,10.90
2020,05,24,07,07,10.90
2020,05,24,07,08,10.90
2020,05,24,07,09,10.90
2020,05,24,07,10,10.90
2020,05,24,07,11,10.90
2020,05,24,07,12,10.90
2020,05,24,07,13,10.90
2020,05,24,07,14,10.90
2020,05,24,07,15,10.90
2020,05,24,07,16,10.90
2020,05,24,07,17,10.90
2020,05,24,07,18,10.90
2020,05,24,07,19,10.90
2020,05,24,07,20,10.90
2020,05,24,07,21,10.90
2020,05,24,07,22,10.90
2020,05,24,07,23,11.00
2020,05,24,07,24,11.00
2020,05,24,07,25,11.00
2020,05,24,07,26,11.00
2020,05,24,07,27,11.00
2020,05,24,07,28,11.00
2020,05,24,07,29,11.00
2020,05,24,07,30,11.00
2020,05,24,07,31,11.00
2020,05,24,07,32,11.00
2020,05,24,07,33,11.00
2020,05,24,07,34,11.00
2020,05,24,07,35,11.00
2020,05,24,07,36,11.00
2020,05,24,07,37,11.00
2020,05,24,07,38,11.00
2020,05,24,07,39,11.00
2020,05,24,07,40,11.10
2020,05,24,07,41,11.10
2020,05,24,07,42,11.10
2020,05,24,07,43,11.10
2020,05,24,07,44,11.10
2020,05,24,07,45,11.20
2020,05,24,07,46,11.20
2020,05,24,07,47,11.20
2020,05,24,07,48,11.20
2020,05,24,07,49,11.30
2020,05,24,07,50,11.30
2020,05,24,07,51,11.30
2020,05,24,07,52,11.30
2020,05,24,07,53,11.30
2020,05,24,07,54,11.40
2020,05,24,07,55,11.40
2020,05,24,07,56,11.40
2020,05,24,07,57,11.40
2020,05,24,07,58,11.40
2020,05,24,07,59,11.40
2020,05,24,08,00,11.40
2020,05,24,08,01,11.50
2020,05,24,08,02,11.50
2020,05,24,08,03,11.50
2020,05,24,08,04,11.60
2020,05,24,08,05,11.60
2020,05,24,08,06,11.60
2020,05,24,08,07,11.60
2020,05,24,08,08,11.70
2020,05,24,08,09,11.70
2020,05,24,08,10,11.70
2020,05,24,08,11,11.70
2020,05,24,08,12,11.80
2020,05,24,08,13,11.80
2020,05,24,08,14,11.80
2020,05,24,08,15,11.80
2020,05,24,08,16,11.80
2020,05,24,08,17,11.80
2020,05,24,08,18,11.80
2020,05,24,08,19,11.90
2020,05,24,08,20,11.90
2020,05,24,08,21,11.90
2020,05,24,08,22,11.90
2020,05,24,08,23,11.90
2020,05,24,08,24,12.00
2020,05,24,08,25,12.00
2020,05,24,08,26,12.10
2020,05,24,08,27,12.10
2020,05,24,08,28,12.10
2020,05,24,08,29,12.10
2020,05,24,08,30,12.10
2020,05,24,08,31,12.20
2020,05,24,08,32,12.20
2020,05,24,08,33,12.20
2020,05,24,08,34,12.20
2020,05,24,08,35,12.20
2020,05,24,08,36,12.20
2020,05,24,08,37,12.30
2020,05,24,08,38,12.30
2020,05,24,08,39,12.30
2020,05,24,08,40,12.30
2020,05,24,08,41,12.30
2020,05,24,08,42,12.30
2020,05,24,08,43,12.30
2020,05,24,08,44,12.30
2020,05,24,08,45,12.30
2020,05,24,08,46,12.30
2020,05,24,08,47,12.30
2020,05,24,08,48,12.30
2020,05,24,08,49,12.30
2020,05,24,08,50,12.30
2020,05,24,08,51,12.30
2020,05,24,08,52,12.30
2020,05,24,08,53,12.30
2020,05,24,08,54,12.30
2020,05,24,08,55,12.30
2020,05,24,08,56,12.40
2020,05,24,08,57,12.40
2020,05,24,08,58,12.40
2020,05,24,08,59,12.40
2020,05,24,09,00,12.50
2020,05,24,09,01,12.50
2020,05,24,09,02,12.60
2020,05,24,09,03,12.60
2020,05,24,09,04,12.60
2020,05,24,09,05,12.70
2020,05,24,09,06,12.70
2020,05,24,09,07,12.80
2020,05,24,09,08,12.80
2020,05,24,09,09,12.80
2020,05,24,09,10,12.80
2020,05,24,09,11,12.80
2020,05,24,09,12,12.80
2020,05,24,09,13,12.80
2020,05,24,09,14,12.80
2020,05,24,09,15,12.80
2020,05,24,09,16,12.80
2020,05,24,09,17,12.80
2020,05,24,09,18,12.80
2020,05,24,09,19,12.80
2020,05,24,09,20,12.80
2020,05,24,09,21,12.80
2020,05,24,09,22,12.80
2020,05,24,09,23,12.80
2020,05,24,09,24,12.70
2020,05,24,09,25,12.70
2020,05,24,09,26,12.70
2020,05,24,09,27,12.70
2020,05,24,09,28,12.70
2020,05,24,09,29,12.70
2020,05,24,09,30,12.70
2020,05,24,09,31,12.70
2020,05,24,09,32,12.70
2020,05,24,09,33,12.70
2020,05,24,09,34,12.80
2020,05,24,09,35,12.80
2020,05,24,09,36,12.80
2020,05,24,09,37,12.80
2020,05,24,09,38,12.90
2020,05,24,09,39,12.90
2020,05,24,09,40,12.90
2020,05,24,09,41,12.90
2020,05,24,09,42,12.90
2020,05,24,09,43,12.90
2020,05,24,09,44,12.90
2020,05,24,09,45,12.90
2020,05,24,09,46,12.90
2020,05,24,09,47,12.90
2020,05,24,09,48,12.90
2020,05,24,09,49,12.90
2020,05,24,09,50,12.90
2020,05,24,09,51,12.90
2020,05,24,09,52,12.90
2020,05,24,09,53,12.90
2020,05,24,09,54,12.90
2020,05,24,09,55,12.80
2020,05,24,09,56,12.80
2020,05,24,09,57,12.80
2020,05,24,09,58,12.80
2020,05,24,09,59,12.80
2020,05,24,10,00,12.70
2020,05,24,10,01,12.70
2020,05,24,10,02,12.70
2020,05,24,10,03,12.60
2020,05,24,10,04,12.60
2020,05,24,10,05,12.60
2020,05,24,10,06,12.60
2020,05,24,10,07,12.60
2020,05,24,10,08,12.60
2020,05,24,10,09,12.60
2020,05,24,10,10,12.60
2020,05,24,10,11,12.60
2020,05,24,10,12,12.60
2020,05,24,10,13,12.60
2020,05,24,10,14,12.60
2020,05,24,10,15,12.60
2020,05,24,10,16,12.60
2020,05,24,10,17,12.70
2020,05,24,10,18,12.70
2020,05,24,10,19,12.70
2020,05,24,10,20,12.80
2020,05,24,10,21,12.80
2020,05,24,10,22,12.80
2020,05,24,10,23,12.80
2020,05,24,10,24,12.80
2020,05,24,10,25,12.80
2020,05,24,10,26,12.90
2020,05,24,10,27,12.90
2020,05,24,10,28,12.90
2020,05,24,10,29,12.90
2020,05,24,10,30,12.90
2020,05,24,10,31,12.90
2020,05,24,10,32,12.90
2020,05,24,10,33,12.90
2020,05,24,10,34,13.00
2020,05,24,10,35,13.00
2020,05,24,10,36,13.10
2020,05,24,10,37,13.10
2020,05,24,10,38,13.20
2020,05,24,10,39,13.20
2020,05,24,10,40,13.20
2020,05,24,10,41,13.30
2020,05,24,10,42,13.30
2020,05,24,10,43,13.30
2020,05,24,10,44,13.30
2020,05,24,10,45,13.30
2020,05,24,10,46,13.30
2020,05,24,10,47,13.30
2020,05,24,10,48,13.30
2020,05,24,10,49,13.40
2020,05,24,10,50,13.40
2020,05,24,10,51,13.40
2020,05,24,10,52,13.40
2020,05,24,10,53,13.30
2020,05,24,10,54,13.30
2020,05,24,10,55,13.30
2020,05,24,10,56,13.30
2020,05,24,10,57,13.30
2020,05,24,10,58,13.30
2020,05,24,10,59,13.30
2020,05,24,11,00,13.30
2020,05,24,11,01,13.30
2020,05,24,11,02,13.30
2020,05,24,11,03,13.30
2020,05,24,11,04,13.30
2020,05,24,11,05,13.30
2020,05,24,11,06,13.30
2020,05,24,11,07,13.30
2020,05,24,11,08,13.40
2020,05,24,11,09,13.40
2020,05,24,11,10,13.40
2020,05,24,11,11,13.40
2020,05,24,11,12,13.40
2020,05,24,11,13,13.30
2020,05,24,11,14,13.30
2020,05,24,11,15,13.30
2020,05,24,11,16,13.40
2020,05,24,11,17,13.40
2020,05,24,11,18,13.40
2020,05,24,11,19,13.30
2020,05,24,11,20,13.30
2020,05,24,11,21,13.40
2020,05,24,11,22,13.40
2020,05,24,11,23,13.40
2020,05,24,11,24,13.40
2020,05,24,11,25,13.50
2020,05,24,11,26,13.50
2020,05,24,11,27,13.50
2020,05,24,11,28,13.40
2020,05,24,11,29,13.40
2020,05,24,11,30,13.50
2020,05,24,11,31,13.50
2020,05,24,11,32,13.50
2020,05,24,11,33,13.60
2020,05,24,11,34,13.60
2020,05,24,11,35,13.60
2020,05,24,11,36,13.60
2020,05,24,11,37,13.70
2020,05,24,11,38,13.70
2020,05,24,11,39,13.80
2020,05,24,11,40,13.90
2020,05,24,11,41,13.90
2020,05,24,11,42,14.00
2020,05,24,11,43,14.10
2020,05,24,11,44,14.10
2020,05,24,11,45,14.10
2020,05,24,11,46,14.10
2020,05,24,11,47,14.10
2020,05,24,11,48,14.10
2020,05,24,11,49,14.20
2020,05,24,11,50,14.20
2020,05,24,11,51,14.30
2020,05,24,11,52,14.40
2020,05,24,11,53,14.50
2020,05,24,11,54,14.50
2020,05,24,11,55,14.70
2020,05,24,11,56,14.80
2020,05,24,11,57,14.90
2020,05,24,11,58,14.90
2020,05,24,11,59,14.90
2020,05,24,12,00,14.80
2020,05,24,12,01,14.80
2020,05,24,12,02,14.70
2020,05,24,12,03,14.60
2020,05,24,12,04,14.60
2020,05,24,12,05,14.60
2020,05,24,12,06,14.60
2020,05,24,12,07,14.60
2020,05,24,12,08,14.50
2020,05,24,12,09,14.50
2020,05,24,12,10,14.50
2020,05,24,12,11,14.50
2020,05,24,12,12,14.50
2020,05,24,12,13,14.50
2020,05,24,12,14,14.60
2020,05,24,12,15,14.60
2020,05,24,12,16,14.60
2020,05,24,12,17,14.60
2020,05,24,12,18,14.60
2020,05,24,12,19,14.70
2020,05,24,12,20,14.70
2020,05,24,12,21,14.70
2020,05,24,12,22,14.70
2020,05,24,12,23,14.70
2020,05,24,12,24,14.80
2020,05,24,12,25,14.80
2020,05,24,12,26,14.90
2020,05,24,12,27,15.00
2020,05,24,12,28,15.00
2020,05,24,12,29,15.00
2020,05,24,12,30,15.00
2020,05,24,12,31,15.00
2020,05,24,12,32,15.00
2020,05,24,12,33,15.10
2020,05,24,12,34,15.10
2020,05,24,12,35,15.10
2020,05,24,12,36,15.10
2020,05,24,12,37,15.10
2020,05,24,12,38,15.10
2020,05,24,12,39,15.10
2020,05,24,12,40,15.10
2020,05,24,12,41,15.10
2020,05,24,12,42,15.20
2020,05,24,12,43,15.20
2020,05,24,12,44,15.30
2020,05,24,12,45,15.30
2020,05,24,12,46,15.40
2020,05,24,12,47,15.60
2020,05,24,12,48,15.70
2020,05,24,12,49,15.60
2020,05,24,12,50,15.60
2020,05,24,12,51,15.60
2020,05,24,12,52,15.50
2020,05,24,12,53,15.40
2020,05,24,12,54,15.40
2020,05,24,12,55,15.40
2020,05,24,12,56,15.50
2020,05,24,12,57,15.50
2020,05,24,12,58,15.60
2020,05,24,12,59,15.70
2020,05,24,13,00,15.80
2020,05,24,13,01,15.90
2020,05,24,13,02,16.00
2020,05,24,13,03,16.10
2020,05,24,13,04,16.10
2020,05,24,13,05,16.10
2020,05,24,13,06,16.20
2020,05,24,13,07,16.30
2020,05,24,13,08,16.30
2020,05,24,13,09,16.20
2020,05,24,13,10,16.10
2020,05,24,13,11,16.10
2020,05,24,13,12,16.10
2020,05,24,13,13,16.10
2020,05,24,13,14,16.10
2020,05,24,13,15,16.10
2020,05,24,13,16,16.20
2020,05,24,13,17,16.20
2020,05,24,13,18,16.20
2020,05,24,13,19,16.30
2020,05,24,13,20,16.30
2020,05,24,13,21,16.50
2020,05,24,13,22,16.50
2020,05,24,13,23,16.60
2020,05,24,13,24,16.60
2020,05,24,13,25,16.60
2020,05,24,13,26,16.60
2020,05,24,13,27,16.60
2020,05,24,13,28,16.60
2020,05,24,13,29,16.60
2020,05,24,13,30,16.50
2020,05,24,13,31,16.50
2020,05,24,13,32,16.40
2020,05,24,13,33,16.40
2020,05,24,13,34,16.40
2020,05,24,13,35,16.50
2020,05,24,13,36,16.60
2020,05,24,13,37,16.60
2020,05,24,13,38,16.70
2020,05,24,13,39,16.70
2020,05,24,13,40,16.80
2020,05,24,13,41,16.80
2020,05,24,13,42,16.80
2020,05,24,13,43,16.80
2020,05,24,13,44,16.80
2020,05,24,13,45,16.80
2020,05,24,13,46,16.80
2020,05,24,13,47,16.80
2020,05,24,13,48,16.80
2020,05,24,13,49,16.80
2020,05,24,13,50,16.80
2020,05,24,13,51,16.80
2020,05,24,13,52,16.80
2020,05,24,13,53,16.80
2020,05,24,13,54,16.80
2020,05,24,13,55,16.80
2020,05,24,13,56,16.80
2020,05,24,13,57,16.70
2020,05,24,13,58,16.70
2020,05,24,13,59,16.70
2020,05,24,14,00,16.70
2020,05,24,14,01,16.70
2020,05,24,14,02,16.70
2020,05,24,14,03,16.70
2020,05,24,14,04,16.80
2020,05,24,14,05,16.80
2020,05,24,14,06,16.90
2020,05,24,14,07,17.00
2020,05,24,14,08,17.00
2020,05,24,14,09,17.10
2020,05,24,14,10,17.20
2020,05,24,14,11,17.30
2020,05,24,14,12,17.30
2020,05,24,14,13,17.30
2020,05,24,14,14,17.30
2020,05,24,14,15,17.30
2020,05,24,14,16,17.30
2020,05,24,14,17,17.20
2020,05,24,14,18,17.20
2020,05,24,14,19,17.30
2020,05,24,14,20,17.30
2020,05,24,14,21,17.30
2020,05,24,14,22,17.30
2020,05,24,14,23,17.20
2020,05,24,14,24,17.10
2020,05,24,14,25,17.10
2020,05,24,14,26,17.10
2020,05,24,14,27,17.10
2020,05,24,14,28,17.20
2020,05,24,14,29,17.30
2020,05,24,14,30,17.20
2020,05,24,14,31,17.20
2020,05,24,14,32,17.20
2020,05,24,14,33,17.20
2020,05,24,14,34,17.30
2020,05,24,14,35,17.30
2020,05,24,14,36,17.40
2020,05,24,14,37,17.40
2020,05,24,14,38,17.40
2020,05,24,14,39,17.40
2020,05,24,14,40,17.40
2020,05,24,14,41,17.30
2020,05,24,14,42,17.20
2020,05,24,14,43,17.10
2020,05,24,14,44,17.10
2020,05,24,14,45,17.10
2020,05,24,14,46,17.00
2020,05,24,14,47,17.10
2020,05,24,14,48,17.10
2020,05,24,14,49,17.10
2020,05,24,14,50,17.20
2020,05,24,14,51,17.20
2020,05,24,14,52,17.30
2020,05,24,14,53,17.30
2020,05,24,14,54,17.30
2020,05,24,14,55,17.30
2020,05,24,14,56,17.30
2020,05,24,14,57,17.30
2020,05,24,14,58,17.30
2020,05,24,14,59,17.30
2020,05,24,15,00,17.30
2020,05,24,15,01,17.30
2020,05,24,15,02,17.40
2020,05,24,15,03,17.30
2020,05,24,15,04,17.30
2020,05,24,15,05,17.30
2020,05,24,15,06,17.30
2020,05,24,15,07,17.30
2020,05,24,15,08,17.30
2020,05,24,15,09,17.30
2020,05,24,15,10,17.30
2020,05,24,15,11,17.30
2020,05,24,15,12,17.20
2020,05,24,15,13,17.20
2020,05,24,15,14,17.10
2020,05,24,15,15,17.20
2020,05,24,15,16,17.20
2020,05,24,15,17,17.20
2020,05,24,15,18,17.30
2020,05,24,15,19,17.40
2020,05,24,15,20,17.40
2020,05,24,15,21,17.40
2020,05,24,15,22,17.40
2020,05,24,15,23,17.40
2020,05,24,15,24,17.40
2020,05,24,15,25,17.40
2020,05,24,15,26,17.40
2020,05,24,15,27,17.50
2020,05,24,15,28,17.50
2020,05,24,15,29,17.50
2020,05,24,15,30,17.40
2020,05,24,15,31,17.40
2020,05,24,15,32,17.40
2020,05,24,15,33,17.40
2020,05,24,15,34,17.40
2020,05,24,15,35,17.30
2020,05,24,15,36,17.30
2020,05,24,15,37,17.30
2020,05,24,15,38,17.30
2020,05,24,15,39,17.40
2020,05,24,15,40,17.40
2020,05,24,15,41,17.30
2020,05,24,15,42,17.30
2020,05,24,15,43,17.30
2020,05,24,15,44,17.40
2020,05,24,15,45,17.40
2020,05,24,15,46,17.40
2020,05,24,15,47,17.30
2020,05,24,15,48,17.30
2020,05,24,15,49,17.30
2020,05,24,15,50,17.30
2020,05,24,15,51,17.30
2020,05,24,15,52,17.30
2020,05,24,15,53,17.40
2020,05,24,15,54,17.40
2020,05,24,15,55,17.40
2020,05,24,15,56,17.40
2020,05,24,15,57,17.40
2020,05,24,15,58,17.50
2020,05,24,15,59,17.60
2020,05,24,16,00,17.70
2020,05,24,16,01,17.70
2020,05,24,16,02,17.60
2020,05,24,16,03,17.70
2020,05,24,16,04,17.70
2020,05,24,16,05,17.70
2020,05,24,16,06,17.70
2020,05,24,16,07,17.80
2020,05,24,16,08,17.80
2020,05,24,16,09,17.80
2020,05,24,16,10,17.70
2020,05,24,16,11,17.70
2020,05,24,16,12,17.50
2020,05,24,16,13,17.40
2020,05,24,16,14,17.30
2020,05,24,16,15,17.30
2020,05,24,16,16,17.30
2020,05,24,16,17,17.30
2020,05,24,16,18,17.40
2020,05,24,16,19,17.40
2020,05,24,16,20,17.40
2020,05,24,16,21,17.40
2020,05,24,16,22,17.50
2020,05,24,16,23,17.50
2020,05,24,16,24,17.50
2020,05,24,16,25,17.50
2020,05,24,16,26,17.60
2020,05,24,16,27,17.50
2020,05,24,16,28,17.50
2020,05,24,16,29,17.40
2020,05,24,16,30,17.40
2020,05,24,16,31,17.40
2020,05,24,16,32,17.40
2020,05,24,16,33,17.40
2020,05,24,16,34,17.40
2020,05,24,16,35,17.40
2020,05,24,16,36,17.40
2020,05,24,16,37,17.40
2020,05,24,16,38,17.30
2020,05,24,16,39,17.40
2020,05,24,16,40,17.40
2020,05,24,16,41,17.50
2020,05,24,16,42,17.50
2020,05,24,16,43,17.60
2020,05,24,16,44,17.50
2020,05,24,16,45,17.50
2020,05,24,16,46,17.50
2020,05,24,16,47,17.50
2020,05,24,16,48,17.50
2020,05,24,16,49,17.40
2020,05,24,16,50,17.30
2020,05,24,16,51,17.40
2020,05,24,16,52,17.40
2020,05,24,16,53,17.40
2020,05,24,16,54,17.50
2020,05,24,16,55,17.50
2020,05,24,16,56,17.60
2020,05,24,16,57,17.60
2020,05,24,16,58,17.60
2020,05,24,16,59,17.60
2020,05,24,17,00,17.70
2020,05,24,17,01,17.70
2020,05,24,17,02,17.80
2020,05,24,17,03,17.80
2020,05,24,17,04,17.90
2020,05,24,17,05,17.90
2020,05,24,17,06,18.00
2020,05,24,17,07,18.00
2020,05,24,17,08,18.00
2020,05,24,17,09,17.90
2020,05,24,17,10,17.90
2020,05,24,17,11,17.90
2020,05,24,17,12,17.90
2020,05,24,17,13,17.90
2020,05,24,17,14,17.90
2020,05,24,17,15,17.90
2020,05,24,17,16,17.90
2020,05,24,17,17,17.90
2020,05,24,17,18,17.90
2020,05,24,17,19,17.90